Location: State Camp
(41.2367°N, 77.7828°W)
Time: 11:38:23
(UTC-05:00)

Amateur Radio Satellites - All Passes

Search period start: 01 February 2015 11:08
Search period end: 02 February 2015 11:08
Location: State Camp, 41.2367°N, 77.7828°W

Satellite Date Start Highest point End Downlink Frequencies (MHz)
Time Altitude Azimuth
HO-68 01 Feb 11:08:55 11:13:50 20° 303° (WNW) 11:18:28 435.675
QB50P2 01 Feb 11:15:38 11:19:10 24° 266° (W) 11:22:39 145.880/145.840
BUGSAT 1 01 Feb 11:17:29 11:21:05 28° 265° (W) 11:24:41 437.445
SO-50 01 Feb 11:18:34 11:21:53 18° 320° (NW) 11:25:10 436.795
BEESAT 2 01 Feb 11:22:49 11:26:20 26° 246° (WSW) 11:29:45 435.950
ZACube-1 01 Feb 11:23:33 11:27:07 24° 292° (WNW) 11:30:31 437.345
QB50P1 01 Feb 11:24:10 11:27:22 20° 268° (W) 11:30:29 145.935-145.965
ANTELSAT 01 Feb 11:24:37 11:27:13 14° 271° (W) 11:29:35 437.575/2403.000
DX 1 01 Feb 11:27:00 11:30:19 20° 293° (WNW) 11:33:29 434.975-435.025
RS-15 01 Feb 11:29:23 11:39:13 34° 33° (NNE) 11:49:35 29.354- 29.394
TIGRISAT 01 Feb 11:30:52 11:33:00 12° 272° (W) 11:34:52 435.000
CUBEBUG 2 01 Feb 11:31:39 11:34:23 16° 296° (WNW) 11:36:55 437.445
BEESAT 3 01 Feb 11:34:00 11:36:52 18° 248° (WSW) 11:39:34 437.485
FUNcube-1 01 Feb 11:34:42 11:37:50 19° 294° (WNW) 11:40:49 145.935
AIST 2 01 Feb 11:35:54 11:40:01 46° 243° (WSW) 11:44:03 435.215
50 SAT 01 Feb 11:40:15 11:43:54 32° 289° (WNW) 11:47:28 437.505
POLYITAN 1 01 Feb 11:42:37 11:44:43 13° 271° (W) 11:46:36 437.675
AIST 1 01 Feb 11:57:42 12:01:15 25° 287° (WNW) 12:04:46
SPROUT 01 Feb 12:02:56 12:07:03 40° 98° (E) 12:11:08 437.525
PHONESAT 2.4 01 Feb 12:04:11 12:07:40 45° 198° (SSW) 12:11:09 2401.200-2431.200
AISAT 01 Feb 12:07:44 12:11:06 20° 294° (WNW) 12:14:19 437.250
ESTCUBE 1 01 Feb 12:20:56 12:24:57 31° 290° (WNW) 12:28:55 437.505/2401.250
Oscar 19 01 Feb 12:21:38 12:26:33 46° 71° (ENE) 12:31:32 437.125/150
VERMONT LUNAR 01 Feb 12:23:23 12:26:14 23° 206° (SSW) 12:29:03 437.305
PCSat 01 Feb 12:23:54 12:29:09 48° 55° (NE) 12:34:24 145.827
Gurwin Techsat 1B 01 Feb 12:26:04 12:28:25 13° 60° (ENE) 12:31:02 435.225
TISAT 1 01 Feb 12:28:05 12:32:24 75° 102° (ESE) 12:36:40 437.305
CUBEBUG 1 01 Feb 12:31:43 12:35:25 25° 291° (WNW) 12:39:02 437.445
GONETS M04 01 Feb 12:35:22 12:44:05 82° 264° (W) 12:52:47
VELOX 1 01 Feb 12:35:41 12:37:18 12° 298° (WNW) 12:38:40 145.980
ITAMSAT 1 01 Feb 12:46:04 12:50:24 28° 67° (ENE) 12:54:50 435.822/435.867
SWISSCUBE 01 Feb 12:51:51 12:55:29 22° 93° (E) 12:59:16 437.505
BEESAT 01 Feb 13:06:38 13:10:44 28° 95° (E) 13:14:53 436.000
ITUPSAT 1 01 Feb 13:12:37 13:16:53 32° 96° (E) 13:21:12 437.325
HORYU 2 01 Feb 13:23:35 13:25:09 12° 63° (ENE) 13:26:57 437.375
SPROUT 01 Feb 13:39:47 13:42:53 19° 293° (WNW) 13:45:52 437.525
RS-15 01 Feb 13:41:48 13:53:14 87° 240° (WSW) 14:05:11 29.354- 29.394
PHONESAT 2.4 01 Feb 13:43:56 13:45:44 13° 213° (SSW) 13:47:27 2401.200-2431.200
STARS 01 Feb 13:55:56 13:57:00 11° 88° (E) 13:58:22 437.465
DANDE 01 Feb 13:57:27 14:02:12 22° 61° (ENE) 14:06:11 436.750
Oscar 19 01 Feb 14:02:10 14:06:11 22° 268° (W) 14:10:04 437.125/150
Gurwin Techsat 1B 01 Feb 14:02:26 14:07:45 85° 256° (WSW) 14:13:07 435.225
TISAT 1 01 Feb 14:06:32 14:07:41 11° 297° (WNW) 14:08:36 437.305
CUSAT 1 01 Feb 14:07:40 14:12:43 30° 66° (ENE) 14:16:42 437.405
PCSat 01 Feb 14:07:58 14:12:18 24° 252° (WSW) 14:16:29 145.827
KKS-1 01 Feb 14:08:08 14:11:44 24° 94° (E) 14:15:24 437.445
AO-7 01 Feb 14:17:26 14:24:52 39° 61° (ENE) 14:32:26 29.400- 29.500
ITAMSAT 1 01 Feb 14:25:04 14:29:48 36° 263° (W) 14:34:34 435.822/435.867
SWISSCUBE 01 Feb 14:29:05 14:33:32 39° 290° (WNW) 14:37:58 437.505
GONETS M04 01 Feb 14:34:59 14:39:43 15° 282° (WNW) 14:43:53
BEESAT 01 Feb 14:44:24 14:48:35 30° 292° (WNW) 14:52:43 436.000
O/OREOS (USA 219) 01 Feb 14:46:28 14:49:53 22° 103° (ESE) 14:53:26 437.305
JAS-2 01 Feb 14:47:06 14:50:19 17° 63° (ENE) 14:53:42 435.910
ITUPSAT 1 01 Feb 14:50:39 14:54:44 27° 292° (WNW) 14:58:43 437.325
HORYU 2 01 Feb 14:56:48 15:01:18 74° 257° (WSW) 15:05:49 437.375
M-CUBED/EXP-1 PRIME 01 Feb 15:04:40 15:06:47 16° 99° (E) 15:09:03 437.505
STARS 01 Feb 15:29:38 15:34:04 68° 285° (WNW) 15:38:28 437.465
AUBIESAT-1 01 Feb 15:34:02 15:37:07 33° 103° (ESE) 15:40:21 437.475
DANDE 01 Feb 15:40:21 15:46:14 45° 269° (W) 15:50:36 436.750
KKS-1 01 Feb 15:44:26 15:48:27 32° 290° (WNW) 15:52:23 437.445
CUSAT 1 01 Feb 15:50:54 15:55:39 28° 274° (W) 15:59:19 437.405
RS-15 01 Feb 15:56:06 16:04:27 22° 257° (WSW) 16:12:20 29.354- 29.394
AO-7 01 Feb 16:09:25 16:17:30 51° 259° (W) 16:25:35 29.400- 29.500
MOZHAYETS 4 01 Feb 16:12:46 16:16:16 22° 93° (E) 16:19:52
O/OREOS (USA 219) 01 Feb 16:24:59 16:29:08 35° 299° (WNW) 16:33:18 437.305
SO-50 01 Feb 16:29:00 16:31:00 12° 33° (NNE) 16:33:10 436.795
JAS-2 01 Feb 16:29:46 16:35:07 59° 259° (W) 16:40:15 435.910
M-CUBED/EXP-1 PRIME 01 Feb 16:38:58 16:41:53 27° 293° (WNW) 16:44:50 437.505
Cubesat XI-IV 01 Feb 16:56:05 17:00:53 36° 68° (ENE) 17:05:45 437.490
AUBIESAT-1 01 Feb 17:10:01 17:11:54 14° 297° (WNW) 17:13:42 437.475
CUTE-I 01 Feb 17:14:35 17:19:42 52° 72° (ENE) 17:24:54 437.470
YUBILEINY 01 Feb 17:40:42 17:45:29 17° 79° (ENE) 17:50:47 435.215
MOZHAYETS 4 01 Feb 17:49:27 17:53:39 36° 289° (WNW) 17:57:48
HO-68 01 Feb 18:05:27 18:08:13 13° 52° (NE) 18:11:22 435.675
SO-50 01 Feb 18:07:42 18:12:36 62° 54° (NE) 18:17:29 436.795
STRAND 1 01 Feb 18:13:19 18:17:14 22° 92° (E) 18:21:16 437.568
CUBESAT XI-V 01 Feb 18:15:09 18:19:22 32° 96° (E) 18:23:37 437.345
PRISM 01 Feb 18:21:15 18:25:17 48° 100° (E) 18:29:20 437.425
Cubesat XI-IV 01 Feb 18:36:26 18:41:03 29° 265° (W) 18:45:37 437.490
CUTE-I 01 Feb 18:56:15 19:00:10 20° 269° (W) 19:03:56 437.470
CANX-2 01 Feb 19:06:06 19:08:43 16° 66° (ENE) 19:11:26 2200.000
DOVE 4 01 Feb 19:10:43 19:13:41 16° 63° (ENE) 19:16:55 437.250
GOMX 1 01 Feb 19:14:57 19:18:59 24° 66° (ENE) 19:23:18 467.674
CUTE 1.7 + AOD 2 01 Feb 19:28:41 19:32:11 25° 69° (ENE) 19:35:44 437.475
ISS 01 Feb 19:31:47 19:33:39 15° 132° (SE) 19:35:38 145.825
YUBILEINY 01 Feb 19:32:29 19:41:11 88° 96° (E) 19:49:58 435.215
BRITE-PL 01 Feb 19:37:37 19:42:37 51° 72° (ENE) 19:48:01 437.365/2234.400
Oscar 11 01 Feb 19:45:22 19:47:10 13° 64° (ENE) 19:49:10 145.826/435.025
HO-68 01 Feb 19:47:43 19:54:45 65° 70° (ENE) 20:01:50 435.675
SO-50 01 Feb 19:49:32 19:52:45 17° 250° (WSW) 19:55:46 436.795
STRAND 1 01 Feb 19:51:47 19:56:41 44° 289° (WNW) 20:01:33 437.568
CUBESAT XI-V 01 Feb 19:52:47 19:56:43 26° 292° (WNW) 20:00:34 437.345
SEEDS 01 Feb 19:53:28 19:57:25 40° 72° (ENE) 20:01:25 437.485
PRISM 01 Feb 19:58:01 20:00:29 15° 295° (WNW) 20:02:47 437.425
CINEMA 3 01 Feb 20:05:24 20:09:36 29° 69° (ENE) 20:13:56 145.822/145.860
DELFI C3 01 Feb 20:12:36 20:15:22 18° 68° (ENE) 20:18:14 145.870
COMPASS 1 01 Feb 20:14:17 20:18:25 57° 75° (ENE) 20:22:34 437.405
UKube-1 01 Feb 20:21:39 20:24:33 18° 66° (ENE) 20:27:36 .
AAUSAT CUBESAT 2 01 Feb 20:37:33 20:41:46 88° 260° (W) 20:45:59 437.432
CANX-2 01 Feb 20:40:12 20:44:21 46° 262° (W) 20:48:29 2200.000
ZACube-1 01 Feb 20:43:01 20:46:50 27° 69° (ENE) 20:50:45 437.345
DOVE 4 01 Feb 20:45:45 20:50:52 72° 259° (W) 20:56:12 437.250
DX 1 01 Feb 20:45:57 20:49:50 33° 70° (ENE) 20:53:49 434.975-435.025
CUBEBUG 2 01 Feb 20:51:28 20:56:01 47° 73° (ENE) 21:00:38 437.445
GOMX 1 01 Feb 20:51:49 20:56:48 47° 263° (W) 21:02:02 467.674
FUNcube-1 01 Feb 20:53:20 20:57:26 33° 70° (ENE) 21:01:35 145.935
50 SAT 01 Feb 20:54:26 20:56:21 13° 65° (ENE) 20:58:28 437.505
CUTE 1.7 + AOD 2 01 Feb 21:04:21 21:08:04 28° 265° (W) 21:11:43 437.475
ISS 01 Feb 21:06:34 21:09:49 62° 327° (NNW) 21:13:05 145.825
BRITE-PL 01 Feb 21:17:37 21:21:33 21° 271° (W) 21:25:30 437.365/2234.400
Oscar 11 01 Feb 21:18:35 21:22:54 64° 259° (W) 21:27:13 145.826/435.025
UWE-3 01 Feb 21:23:10 21:27:53 84° 77° (ENE) 21:32:36 435.000/436.395/437.385
AISAT 01 Feb 21:28:36 21:32:41 37° 71° (ENE) 21:36:50 437.250
SEEDS 01 Feb 21:30:33 21:33:29 17° 269° (W) 21:36:14 437.485
YUBILEINY 01 Feb 21:33:18 21:39:27 20° 300° (WNW) 21:45:12 435.215
HO-68 01 Feb 21:37:28 21:43:05 24° 269° (W) 21:48:29 435.675
ANTELSAT 01 Feb 21:40:04 21:41:32 12° 88° (E) 21:43:15 437.575/2403.000
CINEMA 3 01 Feb 21:42:11 21:46:43 34° 265° (W) 21:51:17 145.822/145.860
ESTCUBE 1 01 Feb 21:44:26 21:47:58 24° 68° (ENE) 21:51:37 437.505/2401.250
TIGRISAT 01 Feb 21:45:03 21:47:02 13° 88° (E) 21:49:13 435.000
DELFI C3 01 Feb 21:46:37 21:50:23 35° 263° (W) 21:54:09 145.870
HUMSAT D 01 Feb 21:51:05 21:55:26 77° 76° (ENE) 21:59:49 437.325/437.525
CUBEBUG 1 01 Feb 21:51:51 21:55:25 26° 68° (ENE) 21:59:05 437.445
COMPASS 1 01 Feb 21:52:51 21:54:35 12° 272° (W) 21:56:06 437.405
VELOX 1 01 Feb 21:54:25 21:58:49 68° 75° (ENE) 22:03:17 145.980
UKube-1 01 Feb 21:56:20 22:00:27 42° 261° (W) 22:04:35 .
AIST 1 01 Feb 22:03:52 22:08:15 77° 81° (E) 22:12:38
POPSAT HIP 1 01 Feb 22:09:18 22:11:37 15° 90° (E) 22:14:06 437.405
DUCHIFAT 1 01 Feb 22:09:37 22:11:54 14° 90° (E) 22:14:22 145.980
ZACube-1 01 Feb 22:19:02 22:23:08 31° 265° (W) 22:27:13 437.345
DX 1 01 Feb 22:22:47 22:26:12 22° 267° (W) 22:29:33 434.975-435.025
50 SAT 01 Feb 22:27:01 22:31:04 54° 260° (W) 22:35:08 437.505
CUBEBUG 2 01 Feb 22:29:35 22:33:00 19° 269° (W) 22:36:17 437.445
FUNcube-1 01 Feb 22:30:03 22:33:51 24° 267° (W) 22:37:33 145.935
UNISAT 6 01 Feb 22:38:11 22:42:31 52° 99° (E) 22:46:45 437.425
NANOSAT C BR1 01 Feb 22:43:53 22:47:49 35° 97° (E) 22:51:46 145.865
ISS 01 Feb 22:44:31 22:46:49 17° 346° (NNW) 22:49:05 145.825
SPROUT 01 Feb 22:57:22 23:01:09 31° 70° (ENE) 23:05:02 437.525
BUGSAT 1 01 Feb 22:59:24 23:03:27 40° 98° (E) 23:07:30 437.445
QB50P2 01 Feb 23:00:19 23:04:34 55° 100° (E) 23:08:47 145.880/145.840
AISAT 01 Feb 23:06:04 23:09:28 21° 267° (W) 23:12:47 437.250
QB50P1 01 Feb 23:08:12 23:12:31 67° 101° (E) 23:16:46 145.935-145.965
ANTELSAT 01 Feb 23:14:31 23:18:54 61° 286° (WNW) 23:23:09 437.575/2403.000
TIGRISAT 01 Feb 23:19:56 23:24:16 54° 287° (WNW) 23:28:29 435.000
TISAT 1 01 Feb 23:20:25 23:24:34 55° 74° (ENE) 23:28:47 437.305
ESTCUBE 1 01 Feb 23:20:41 23:24:45 32° 264° (W) 23:28:47 437.505/2401.250
POLYITAN 1 01 Feb 23:25:42 23:30:02 76° 285° (WNW) 23:34:19 437.675
CUBEBUG 1 01 Feb 23:27:56 23:31:45 28° 265° (W) 23:35:32 437.445
VELOX 1 01 Feb 23:34:37 23:35:59 11° 272° (W) 23:37:04 145.980
GONETS M04 01 Feb 23:42:07 23:48:27 24° 82° (E) 23:55:05
POPSAT HIP 1 01 Feb 23:43:41 23:47:52 48° 287° (WNW) 23:51:59 437.405
DUCHIFAT 1 01 Feb 23:43:57 23:48:07 48° 287° (WNW) 23:52:14 145.980
SWISSCUBE 01 Feb 23:58:41 00:02:33 26° 67° (ENE) 00:06:31 437.505
BEESAT 02 Feb 00:13:17 00:17:30 33° 69° (ENE) 00:21:47 436.000
UNISAT 6 02 Feb 00:16:19 00:18:55 15° 296° (WNW) 00:21:20 437.425
ITUPSAT 1 02 Feb 00:19:35 00:23:56 37° 70° (ENE) 00:28:20 437.325
NANOSAT C BR1 02 Feb 00:20:15 00:23:31 21° 293° (WNW) 00:26:39 145.865
ISS 02 Feb 00:22:24 00:24:16 14° 6° (N) 00:26:08 145.825
SPROUT 02 Feb 00:33:52 00:37:20 23° 267° (W) 00:40:44 437.525
Oscar 19 02 Feb 00:34:30 00:37:29 16° 89° (E) 00:40:40 437.125/150
BUGSAT 1 02 Feb 00:35:40 00:38:42 19° 293° (WNW) 00:41:36 437.445
QB50P2 02 Feb 00:37:44 00:40:05 14° 295° (WNW) 00:42:15 145.880/145.840
QB50P1 02 Feb 00:46:12 00:47:54 12° 297° (WNW) 00:49:24 145.935-145.965
STARS 02 Feb 00:53:45 00:54:58 11° 62° (ENE) 00:56:26 437.465
O/OREOS (USA 219) 02 Feb 00:55:19 00:59:43 44° 63° (ENE) 01:04:07 437.305
TISAT 1 02 Feb 00:58:51 01:00:50 13° 271° (W) 01:02:36 437.305
KKS-1 02 Feb 01:06:41 01:10:10 23° 67° (ENE) 01:13:45 437.445
BEESAT 2 02 Feb 01:16:47 01:20:49 59° 119° (ESE) 01:24:56 435.950
BEESAT 3 02 Feb 01:26:38 01:30:44 86° 124° (SE) 01:34:55 437.485
AIST 2 02 Feb 01:34:01 01:37:54 36° 116° (ESE) 01:41:52 435.215
GONETS M04 02 Feb 01:35:48 01:44:34 72° 281° (W) 01:53:17
SWISSCUBE 02 Feb 01:36:00 01:40:20 33° 264° (W) 01:44:37 437.505
BEESAT 02 Feb 01:51:25 01:55:25 26° 266° (W) 01:59:21 436.000
M-CUBED/EXP-1 PRIME 02 Feb 01:53:42 01:56:54 26° 66° (ENE) 01:59:59 437.505
ITUPSAT 1 02 Feb 01:58:10 02:01:58 23° 267° (W) 02:05:41 437.325
ISS 02 Feb 01:58:31 02:01:31 31° 26° (NNE) 02:04:31 145.825
RS-15 02 Feb 02:03:29 02:05:11 11° 97° (E) 02:08:03 29.354- 29.394
Oscar 19 02 Feb 02:12:16 02:17:21 61° 287° (WNW) 02:22:23 437.125/150
Gurwin Techsat 1B 02 Feb 02:18:54 02:23:50 38° 97° (E) 02:28:47 435.225
AUBIESAT-1 02 Feb 02:22:51 02:26:36 51° 70° (ENE) 02:30:05 437.475
STARS 02 Feb 02:26:26 02:30:53 78° 257° (WSW) 02:35:23 437.465
O/OREOS (USA 219) 02 Feb 02:35:37 02:38:51 18° 258° (WSW) 02:41:55 437.305
ITAMSAT 1 02 Feb 02:37:16 02:42:32 81° 103° (ESE) 02:47:47 435.822/435.867
KKS-1 02 Feb 02:42:34 02:46:40 34° 263° (W) 02:50:47 437.445
HORYU 2 02 Feb 02:49:08 02:52:28 21° 93° (E) 02:55:53 437.375
BEESAT 2 02 Feb 02:56:38 02:59:27 17° 318° (NW) 03:02:12 435.950
DANDE 02 Feb 03:05:25 03:12:59 40° 89° (E) 03:20:47 436.750
PCSat 02 Feb 03:05:35 03:10:40 44° 113° (ESE) 03:15:49 145.827
BEESAT 3 02 Feb 03:07:29 03:09:32 13° 322° (NW) 03:11:27 437.485
CUSAT 1 02 Feb 03:12:07 03:20:02 50° 92° (E) 03:27:54 437.405
AIST 2 02 Feb 03:13:03 03:16:38 25° 314° (NW) 03:20:11 435.215
MOZHAYETS 4 02 Feb 03:15:10 03:18:35 22° 67° (ENE) 03:22:06
M-CUBED/EXP-1 PRIME 02 Feb 03:28:50 03:31:54 21° 259° (W) 03:34:45 437.505
ISS 02 Feb 03:34:58 03:38:00 35° 223° (SW) 03:41:03 145.825
JAS-2 02 Feb 03:38:18 03:41:59 17° 91° (E) 03:46:13 435.910
GONETS M04 02 Feb 03:38:48 03:43:25 14° 304° (NW) 03:47:27
Gurwin Techsat 1B 02 Feb 03:59:11 04:03:41 28° 293° (WNW) 04:08:04 435.225
AUBIESAT-1 02 Feb 04:00:49 04:01:48 11° 264° (W) 04:02:33 437.475
RS-15 02 Feb 04:04:57 04:15:34 63° 115° (ESE) 04:26:21 29.354- 29.394
AO-7 02 Feb 04:10:36 04:18:47 57° 102° (ESE) 04:26:55 29.400- 29.500
ITAMSAT 1 02 Feb 04:18:44 04:21:26 14° 299° (WNW) 04:23:54 435.822/435.867
HORYU 2 02 Feb 04:25:12 04:29:17 35° 290° (WNW) 04:33:17 437.375
DANDE 02 Feb 04:48:04 04:56:20 52° 287° (WNW) 05:04:33 436.750
PCSat 02 Feb 04:49:34 04:54:17 29° 311° (NW) 04:58:58 145.827
MOZHAYETS 4 02 Feb 04:51:21 04:55:38 38° 263° (W) 04:59:53
CUSAT 1 02 Feb 04:55:23 05:03:15 41° 289° (WNW) 05:10:47 437.405
PRISM 02 Feb 05:12:01 05:15:45 35° 71° (ENE) 05:19:32 437.425
Cubesat XI-IV 02 Feb 05:14:45 05:17:22 14° 88° (E) 05:20:16 437.490
CUBESAT XI-V 02 Feb 05:18:49 05:22:51 31° 70° (ENE) 05:26:58 437.345
JAS-2 02 Feb 05:21:45 05:27:34 72° 286° (WNW) 05:34:09 435.910
STRAND 1 02 Feb 05:29:08 05:33:35 32° 68° (ENE) 05:38:08 437.568
CUTE-I 02 Feb 05:32:29 05:36:23 21° 91° (E) 05:40:27 437.470
YUBILEINY 02 Feb 05:42:49 05:51:06 44° 73° (ENE) 05:59:28 435.215
AO-7 02 Feb 06:03:58 06:11:15 34° 301° (WNW) 06:18:23 29.400- 29.500
RS-15 02 Feb 06:18:17 06:28:33 43° 320° (NW) 06:38:54 29.354- 29.394
PHONESAT 2.4 02 Feb 06:34:30 06:36:36 15° 149° (SSE) 06:38:46 2401.200-2431.200
DANDE 02 Feb 06:39:01 06:41:58 11° 308° (NW) 06:44:15 436.750
VERMONT LUNAR 02 Feb 06:46:51 06:49:50 27° 156° (SSE) 06:52:52 437.305
PRISM 02 Feb 06:48:32 06:51:26 18° 267° (W) 06:54:14 437.425
Cubesat XI-IV 02 Feb 06:52:44 06:58:08 73° 286° (WNW) 07:03:30 437.490
CUBESAT XI-V 02 Feb 06:56:30 07:00:21 25° 267° (W) 07:04:09 437.345
STRAND 1 02 Feb 07:08:19 07:12:48 30° 265° (W) 07:17:16 437.568
JAS-2 02 Feb 07:10:14 07:12:03 11° 300° (WNW) 07:13:31 435.910
CUTE-I 02 Feb 07:11:37 07:16:49 51° 289° (WNW) 07:21:59 437.470
YUBILEINY 02 Feb 07:39:51 07:47:54 41° 272° (W) 07:55:50 435.215
BRITE-PL 02 Feb 07:43:51 07:47:38 19° 88° (E) 07:51:29 437.365/2234.400
PHONESAT 2.4 02 Feb 08:11:12 08:14:41 50° 163° (SSE) 08:18:12 2401.200-2431.200
AAUSAT CUBESAT 2 02 Feb 08:22:29 08:24:43 14° 90° (E) 08:27:08 437.432
SO-50 02 Feb 08:23:44 08:26:53 19° 111° (ESE) 08:30:14 436.795
VERMONT LUNAR 02 Feb 08:24:13 08:27:41 71° 172° (S) 08:31:09 437.305
CANX-2 02 Feb 08:25:57 08:29:38 29° 95° (E) 08:33:20 2200.000
Cubesat XI-IV 02 Feb 08:36:26 08:37:26 10° 302° (WNW) 08:38:05 437.490
RS-15 02 Feb 08:37:06 08:45:00 21° 352° (N) 08:52:58 29.354- 29.394
ANTELSAT 02 Feb 08:39:20 08:41:26 13° 64° (ENE) 08:43:45 437.575/2403.000
TIGRISAT 02 Feb 08:44:04 08:46:30 15° 64° (ENE) 08:49:07 435.000
DOVE 4 02 Feb 08:45:55 08:50:32 34° 94° (E) 08:54:58 437.250
CUTE 1.7 + AOD 2 02 Feb 08:49:10 08:53:15 48° 99° (E) 08:57:21 437.475
GOMX 1 02 Feb 08:54:02 08:59:20 59° 99° (E) 09:04:19 467.674
HO-68 02 Feb 09:02:48 09:09:57 68° 103° (ESE) 09:17:05 435.675
POPSAT HIP 1 02 Feb 09:03:29 09:05:08 12° 64° (ENE) 09:07:00 437.405
DUCHIFAT 1 02 Feb 09:03:32 09:05:07 12° 64° (ENE) 09:06:54 145.980
Oscar 11 02 Feb 09:06:40 09:10:02 23° 93° (E) 09:13:29 145.826/435.025
SEEDS 02 Feb 09:13:31 09:17:44 80° 102° (ESE) 09:21:55 437.485
UWE-3 02 Feb 09:14:57 09:17:44 17° 90° (E) 09:20:37 435.000/436.395/437.385
BRITE-PL 02 Feb 09:21:06 09:26:39 58° 287° (WNW) 09:31:52 437.365/2234.400
DELFI C3 02 Feb 09:26:52 09:30:25 29° 96° (E) 09:33:59 145.870
COMPASS 1 02 Feb 09:33:42 09:37:52 73° 284° (WNW) 09:42:00 437.405
BEESAT 2 02 Feb 09:36:46 09:40:41 37° 51° (NE) 09:44:33 435.950
UNISAT 6 02 Feb 09:36:52 09:41:23 49° 73° (ENE) 09:45:54 437.425
NANOSAT C BR1 02 Feb 09:36:56 09:40:32 27° 69° (ENE) 09:44:13 145.865
CINEMA 3 02 Feb 09:37:15 09:42:00 63° 100° (E) 09:46:29 145.822/145.860
HUMSAT D 02 Feb 09:37:47 09:39:28 12° 88° (E) 09:41:21 437.325/437.525
UKube-1 02 Feb 09:44:10 09:48:02 31° 96° (E) 09:51:56 .
BEESAT 3 02 Feb 09:46:12 09:50:17 52° 54° (NE) 09:54:18 437.485
VELOX 1 02 Feb 09:47:01 09:49:05 13° 89° (E) 09:51:22 145.980
PHONESAT 2.4 02 Feb 09:49:32 09:53:09 81° 182° (S) 09:56:47 2401.200-2431.200
BUGSAT 1 02 Feb 09:49:59 09:53:30 28° 69° (ENE) 09:57:08 437.445
QB50P2 02 Feb 09:53:23 09:57:25 42° 72° (ENE) 10:01:31 145.880/145.840
GONETS M04 02 Feb 09:53:41 09:55:17 11° 52° (NE) 09:57:36
AIST 2 02 Feb 09:55:58 09:59:37 27° 47° (NE) 10:03:17 435.215
AAUSAT CUBESAT 2 02 Feb 09:56:43 10:00:42 45° 287° (WNW) 10:04:39 437.432
QB50P1 02 Feb 10:01:00 10:05:07 50° 74° (ENE) 10:09:20 145.935-145.965
CANX-2 02 Feb 10:02:05 10:05:29 24° 291° (WNW) 10:08:49 2200.000
VERMONT LUNAR 02 Feb 10:02:15 10:05:43 72° 190° (S) 10:09:13 437.305
SO-50 02 Feb 10:02:37 10:07:05 49° 308° (NW) 10:11:42 436.795
50 SAT 02 Feb 10:07:18 10:10:11 19° 92° (E) 10:13:09 437.505
ZACube-1 02 Feb 10:07:38 10:11:56 52° 99° (E) 10:16:07 437.345
DX 1 02 Feb 10:10:01 10:14:23 63° 101° (ESE) 10:18:45 434.975-435.025
ANTELSAT 02 Feb 10:13:02 10:17:45 71° 258° (WSW) 10:22:25 437.575/2403.000
FUNcube-1 02 Feb 10:18:00 10:22:23 68° 101° (E) 10:26:37 145.935
TIGRISAT 02 Feb 10:18:08 10:22:48 64° 259° (WSW) 10:27:28 435.000
POLYITAN 1 02 Feb 10:18:39 10:22:57 81° 76° (ENE) 10:27:19 437.675
CUBEBUG 2 02 Feb 10:19:36 10:24:08 79° 284° (WNW) 10:28:29 437.445
DOVE 4 02 Feb 10:23:50 10:28:12 28° 293° (WNW) 10:32:17 437.250
CUTE 1.7 + AOD 2 02 Feb 10:26:21 10:28:51 15° 294° (WNW) 10:31:12 437.475
GOMX 1 02 Feb 10:33:12 10:36:58 19° 296° (WNW) 10:40:25 467.674
AIST 1 02 Feb 10:33:31 10:37:33 44° 93° (E) 10:41:38
DUCHIFAT 1 02 Feb 10:36:14 10:40:29 66° 259° (W) 10:44:47 145.980
POPSAT HIP 1 02 Feb 10:36:17 10:40:33 65° 259° (W) 10:44:52 437.405
Oscar 11 02 Feb 10:42:28 10:46:17 31° 290° (WNW) 10:50:03 145.826/435.025
UWE-3 02 Feb 10:50:21 10:54:36 43° 288° (WNW) 10:58:41 435.000/436.395/437.385
HO-68 02 Feb 10:51:31 10:57:09 25° 301° (WNW) 11:02:36 435.675
AISAT 02 Feb 10:55:44 11:00:17 77° 102° (ESE) 11:04:47 437.250
